When you browse on this site, cookies collect data to enhance your experience and personalize the content and advertising you see.
Visit our Privacy Policy to learn more. By continuing to use the site, you agree to this use of cookies and data.

Hourly Weather Vevey

Today, 2 July, Thursday

Time Temperature Precipitation Wind Pressure Humidity
00:00 +19°C° 0 mm 1 mps 718 mmHg 92%
01:00 +18°C° 0 mm 1 mps 718 mmHg 92%
02:00 +18°C° 0 mm 1 mps 718 mmHg 93%
03:00 +18°C° 0 mm 1 mps 718 mmHg 93%
04:00 +19°C° 0 mm 1 mps 718 mmHg 93%
05:00 +20°C° 0 mm 1 mps 719 mmHg 92%
06:00 +21°C° 0 mm 1 mps 719 mmHg 89%
07:00 +23°C° 0.1 mm 1 mps 719 mmHg 82%
08:00 +24°C° 0.1 mm 1 mps 719 mmHg 75%
09:00 +26°C° 0.1 mm 1 mps 719 mmHg 68%
10:00 +26°C° 0.4 mm 2 mps 719 mmHg 68%
11:00 +26°C° 0.4 mm 2 mps 719 mmHg 69%
12:00 +26°C° 0 mm 2 mps 719 mmHg 71%
13:00 +25°C° 1.8 mm 2 mps 719 mmHg 76%
14:00 +24°C° 1.8 mm 2 mps 718 mmHg 81%
15:00 +24°C° 1.8 mm 2 mps 718 mmHg 85%
16:00 +23°C° 1.1 mm 2 mps 719 mmHg 87%
17:00 +21°C° 1.1 mm 2 mps 719 mmHg 89%
18:00 +20°C° 1.1 mm 2 mps 719 mmHg 91%
19:00 +20°C° 0.4 mm 1 mps 719 mmHg 92%
20:00 +19°C° 0.4 mm 1 mps 720 mmHg 94%
21:00 +16°C° 0.4 mm 1 mps 720 mmHg 95%
22:00 +16°C° 0.2 mm 1 mps 720 mmHg 95%
23:00 +16°C° 0.2 mm 1 mps 720 mmHg 96%

Tomorrow, 3 July, Friday

Time Temperature Precipitation Wind Pressure Humidity
00:00 +16°C° 0.2 mm 1 mps 720 mmHg 96%
01:00 +16°C° 0.2 mm 1 mps 720 mmHg 96%
02:00 +16°C° 0.2 mm 1 mps 720 mmHg 96%
03:00 +16°C° 0.2 mm 1 mps 720 mmHg 96%
04:00 +16°C° 0.1 mm 1 mps 720 mmHg 95%
05:00 +16°C° 0.1 mm 1 mps 720 mmHg 94%
06:00 +16°C° 0.1 mm 1 mps 721 mmHg 94%
07:00 +18°C° 0 mm 1 mps 721 mmHg 88%
08:00 +18°C° 0 mm 2 mps 721 mmHg 83%
09:00 +18°C° 0 mm 2 mps 721 mmHg 78%
10:00 +19°C° 0.1 mm 2 mps 721 mmHg 76%
11:00 +19°C° 0.1 mm 2 mps 721 mmHg 75%
12:00 +20°C° 0.1 mm 2 mps 721 mmHg 74%
13:00 +20°C° 0.1 mm 2 mps 721 mmHg 72%
14:00 +21°C° 0.1 mm 2 mps 721 mmHg 70%
15:00 +21°C° 0.1 mm 3 mps 721 mmHg 68%
16:00 +21°C° 0.2 mm 2 mps 721 mmHg 74%
17:00 +20°C° 0.2 mm 2 mps 721 mmHg 79%
18:00 +19°C° 0.2 mm 2 mps 721 mmHg 85%
19:00 +18°C° 0 mm 2 mps 722 mmHg 88%
20:00 +16°C° 0 mm 1 mps 722 mmHg 91%
21:00 +15°C° 0 mm 1 mps 723 mmHg 94%
22:00 +15°C° 0 mm 1 mps 723 mmHg 94%
23:00 +14°C° 0 mm 1 mps 723 mmHg 95%

Day after tomorrow, 4 July, Saturday

Time Temperature Precipitation Wind Pressure Humidity
00:00 +14°C° 0 mm 1 mps 723 mmHg 95%
01:00 +14°C° 0 mm 1 mps 723 mmHg 95%
02:00 +14°C° 0 mm 1 mps 723 mmHg 95%
03:00 +13°C° 0 mm 1 mps 723 mmHg 95%
04:00 +13°C° 0 mm 0 mps 723 mmHg 93%
05:00 +15°C° 0 mm 0 mps 723 mmHg 91%
06:00 +16°C° 0 mm 0 mps 723 mmHg 89%
07:00 +17°C° 0 mm 0 mps 723 mmHg 81%
08:00 +21°C° 0 mm 1 mps 723 mmHg 74%
09:00 +23°C° 0 mm 1 mps 723 mmHg 66%
10:00 +24°C° 0 mm 1 mps 723 mmHg 62%
11:00 +25°C° 0 mm 1 mps 723 mmHg 59%
12:00 +25°C° 0 mm 2 mps 723 mmHg 56%
13:00 +25°C° 0 mm 1 mps 722 mmHg 57%
14:00 +25°C° 0 mm 1 mps 722 mmHg 58%
15:00 +25°C° 0 mm 1 mps 722 mmHg 59%
16:00 +25°C° 0 mm 1 mps 722 mmHg 64%
17:00 +24°C° 0 mm 1 mps 722 mmHg 69%
18:00 +23°C° 0 mm 1 mps 722 mmHg 74%
19:00 +21°C° 0 mm 1 mps 723 mmHg 78%
20:00 +19°C° 0 mm 1 mps 723 mmHg 83%
21:00 +16°C° 0 mm 1 mps 723 mmHg 88%
22:00 +16°C° 0 mm 1 mps 723 mmHg 88%
23:00 +16°C° 0 mm 1 mps 723 mmHg 89%

5 July, Sunday

Time Temperature Precipitation Wind Pressure Humidity
00:00 +15°C° 0 mm 1 mps 723 mmHg 89%
01:00 +15°C° 0 mm 1 mps 723 mmHg 90%
02:00 +15°C° 0 mm 1 mps 723 mmHg 90%
03:00 +15°C° 0 mm 1 mps 723 mmHg 91%
04:00 +16°C° 0 mm 1 mps 723 mmHg 87%
05:00 +19°C° 0 mm 1 mps 723 mmHg 83%
06:00 +20°C° 0 mm 1 mps 723 mmHg 79%
07:00 +22°C° 0 mm 1 mps 723 mmHg 74%
08:00 +23°C° 0 mm 1 mps 723 mmHg 68%
09:00 +25°C° 0 mm 1 mps 723 mmHg 62%
10:00 +25°C° 0 mm 1 mps 723 mmHg 61%
11:00 +26°C° 0 mm 2 mps 723 mmHg 61%
12:00 +26°C° 0 mm 2 mps 723 mmHg 61%
13:00 +27°C° 0 mm 2 mps 722 mmHg 61%
14:00 +27°C° 0 mm 1 mps 722 mmHg 62%
15:00 +27°C° 0 mm 1 mps 722 mmHg 62%
16:00 +26°C° 0 mm 1 mps 722 mmHg 68%
17:00 +25°C° 0 mm 1 mps 722 mmHg 74%
18:00 +25°C° 0 mm 1 mps 722 mmHg 79%
19:00 +23°C° 0 mm 1 mps 722 mmHg 84%
20:00 +21°C° 0 mm 1 mps 722 mmHg 89%
21:00 +19°C° 0 mm 1 mps 722 mmHg 94%
22:00 +19°C° 0 mm 1 mps 722 mmHg 94%
23:00 +19°C° 0 mm 1 mps 721 mmHg 94%

6 July, Monday

Time Temperature Precipitation Wind Pressure Humidity
00:00 +18°C° 0 mm 1 mps 721 mmHg 95%
01:00 +18°C° 0 mm 1 mps 721 mmHg 95%
02:00 +18°C° 0 mm 1 mps 721 mmHg 95%
03:00 +18°C° 0 mm 1 mps 720 mmHg 95%
04:00 +19°C° 0 mm 1 mps 720 mmHg 93%
05:00 +20°C° 0 mm 1 mps 720 mmHg 92%
06:00 +21°C° 0 mm 1 mps 720 mmHg 90%
07:00 +22°C° 0 mm 1 mps 721 mmHg 83%
08:00 +23°C° 0 mm 1 mps 721 mmHg 77%
09:00 +24°C° 0 mm 1 mps 721 mmHg 70%
10:00 +25°C° 0 mm 2 mps 721 mmHg 66%
11:00 +26°C° 0 mm 2 mps 720 mmHg 62%
12:00 +26°C° 0 mm 2 mps 720 mmHg 58%
13:00 +25°C° 0.1 mm 3 mps 720 mmHg 63%
14:00 +24°C° 0.1 mm 3 mps 720 mmHg 67%
15:00 +22°C° 0.1 mm 4 mps 720 mmHg 72%
16:00 +21°C° 0.1 mm 3 mps 720 mmHg 78%
17:00 +19°C° 0.1 mm 3 mps 720 mmHg 83%
18:00 +18°C° 0.1 mm 2 mps 721 mmHg 89%
19:00 +17°C° 0.1 mm 2 mps 721 mmHg 90%
20:00 +16°C° 0.1 mm 3 mps 721 mmHg 92%
21:00 +14°C° 0.1 mm 3 mps 722 mmHg 93%
22:00 +14°C° 0 mm 3 mps 722 mmHg 93%
23:00 +13°C° 0 mm 3 mps 722 mmHg 93%

7 July, Tuesday

Time Temperature Precipitation Wind Pressure Humidity
00:00 +12°C° 0 mm 3 mps 721 mmHg 94%
01:00 +12°C° 0 mm 3 mps 721 mmHg 93%
02:00 +12°C° 0 mm 3 mps 721 mmHg 93%
03:00 +12°C° 0 mm 3 mps 721 mmHg 93%
04:00 +12°C° 0 mm 3 mps 721 mmHg 90%
05:00 +13°C° 0 mm 3 mps 721 mmHg 87%
06:00 +13°C° 0 mm 4 mps 721 mmHg 85%
07:00 +15°C° 0 mm 4 mps 721 mmHg 74%
08:00 +18°C° 0 mm 4 mps 721 mmHg 64%
09:00 +20°C° 0 mm 5 mps 722 mmHg 54%
10:00 +21°C° 0 mm 5 mps 721 mmHg 51%
11:00 +22°C° 0 mm 5 mps 721 mmHg 49%
12:00 +23°C° 0 mm 5 mps 721 mmHg 46%
13:00 +23°C° 0 mm 5 mps 721 mmHg 48%
14:00 +23°C° 0 mm 4 mps 721 mmHg 49%
15:00 +23°C° 0 mm 4 mps 721 mmHg 50%
16:00 +22°C° 0 mm 4 mps 721 mmHg 56%
17:00 +21°C° 0 mm 4 mps 721 mmHg 62%
18:00 +20°C° 0 mm 3 mps 721 mmHg 68%
19:00 +18°C° 0 mm 3 mps 722 mmHg 73%
20:00 +17°C° 0 mm 3 mps 722 mmHg 79%
21:00 +15°C° 0 mm 2 mps 722 mmHg 84%
22:00 +14°C° 0 mm 2 mps 722 mmHg 84%
23:00 +14°C° 0 mm 2 mps 722 mmHg 83%
Show more